JAL8001 RJOO-RJFF

Flight info

Callsign JAL8001
Flight time N/A
Altitude 40000
Route TIGER SUMAR AYAME SETOH SOUJA Y281 STOUT Y20 KIRIN
Aircraft A359/H-SDE2E3GHIJ3J4J5LM1ORWXY/LB1D1

Departure

Time 2026-04-28 08:15
Airport Osaka Itami International Airport (RJOO)

Arrival

Time N/A
Airport Fukuoka Airport (RJFF)
Time Latitude Longitude Altitude Speed Heading
2026-04-28 07:55 34.79173 135.43851 56 ft 0 kts 31°
2026-04-28 08:01 34.79165 135.43845 48 ft 4 kts 31°
2026-04-28 08:01 34.79142 135.43828 48 ft 4 kts 31°
2026-04-28 08:01 34.79119 135.43811 48 ft 4 kts 31°
2026-04-28 08:02 34.79096 135.43794 50 ft 4 kts 31°
2026-04-28 08:02 34.79076 135.43779 48 ft 4 kts 44°
2026-04-28 08:02 34.79065 135.43754 48 ft 4 kts 97°
2026-04-28 08:02 34.79075 135.43726 48 ft 4 kts 130°
2026-04-28 08:03 34.79093 135.43703 48 ft 4 kts 135°
2026-04-28 08:03 34.79104 135.43690 48 ft 0 kts 135°
2026-04-28 08:06 34.79103 135.43691 48 ft 1 kts 135°
2026-04-28 08:07 34.79055 135.43725 48 ft 10 kts 169°
2026-04-28 08:07 34.78978 135.43727 52 ft 12 kts 163°
2026-04-28 08:07 34.78905 135.43802 50 ft 13 kts 134°
2026-04-28 08:07 34.78841 135.43881 51 ft 15 kts 135°
2026-04-28 08:08 34.78774 135.43961 50 ft 17 kts 135°
2026-04-28 08:08 34.78718 135.44029 52 ft 11 kts 135°
2026-04-28 08:08 34.78650 135.44111 50 ft 16 kts 135°
2026-04-28 08:08 34.78561 135.44220 51 ft 19 kts 135°
2026-04-28 08:09 34.78483 135.44312 51 ft 14 kts 141°
2026-04-28 08:09 34.78378 135.44334 53 ft 17 kts 180°
2026-04-28 08:09 34.78262 135.44334 53 ft 15 kts 180°
2026-04-28 08:09 34.78174 135.44347 50 ft 13 kts 151°
2026-04-28 08:10 34.78094 135.44433 49 ft 17 kts 136°
2026-04-28 08:10 34.78004 135.44541 48 ft 20 kts 135°
2026-04-28 08:10 34.77894 135.44675 54 ft 25 kts 135°
2026-04-28 08:10 34.77797 135.44793 48 ft 15 kts 135°
2026-04-28 08:11 34.77712 135.44891 51 ft 19 kts 142°
2026-04-28 08:11 34.77586 135.44972 50 ft 22 kts 155°
2026-04-28 08:11 34.77493 135.45015 51 ft 0 kts 174°
2026-04-28 08:13 34.77466 135.45009 54 ft 8 kts 199°
2026-04-28 08:14 34.77438 135.44933 51 ft 12 kts 288°
2026-04-28 08:14 34.77493 135.44855 53 ft 9 kts 315°
2026-04-28 08:14 34.77503 135.44843 51 ft 6 kts 315°
2026-04-28 08:14 34.77726 135.44572 50 ft 92 kts 315°
2026-04-28 08:15 34.78380 135.43791 64 ft 167 kts 310°
2026-04-28 08:15 34.79240 135.42850 1036 ft 158 kts 321°
2026-04-28 08:15 34.80165 135.41948 1730 ft 180 kts 317°
2026-04-28 08:15 34.80721 135.40559 2339 ft 194 kts 278°
2026-04-28 08:16 34.80277 135.38948 2943 ft 214 kts 235°
2026-04-28 08:16 34.78958 135.38060 3909 ft 227 kts 200°
2026-04-28 08:16 34.77352 135.38133 4932 ft 241 kts 179°
2026-04-28 08:16 34.75640 135.38528 5724 ft 255 kts 185°
2026-04-28 08:17 34.73903 135.38339 6750 ft 252 kts 203°
2026-04-28 08:17 34.72195 135.37779 7688 ft 257 kts 210°
2026-04-28 08:17 34.70499 135.37025 8763 ft 261 kts 214°
2026-04-28 08:17 34.68915 135.35975 9922 ft 257 kts 226°
2026-04-28 08:18 34.67701 135.34375 10831 ft 264 kts 246°
2026-04-28 08:18 34.67016 135.32264 11369 ft 284 kts 260°
2026-04-28 08:18 34.66664 135.29818 11952 ft 302 kts 268°
2026-04-28 08:18 34.66678 135.27243 12915 ft 309 kts 278°
2026-04-28 08:19 34.67057 135.24644 13824 ft 316 kts 284°
2026-04-28 08:19 34.67571 135.22021 14658 ft 321 kts 285°
2026-04-28 08:19 34.68092 135.19378 15623 ft 322 kts 284°
2026-04-28 08:19 34.68603 135.16721 16601 ft 324 kts 284°
2026-04-28 08:20 34.68988 135.14016 17534 ft 325 kts 279°
2026-04-28 08:20 34.69246 135.11273 18462 ft 328 kts 276°
2026-04-28 08:20 34.69354 135.08500 19374 ft 329 kts 273°
2026-04-28 08:20 34.69332 135.05721 20304 ft 330 kts 271°
2026-04-28 08:21 34.69236 135.02920 21228 ft 332 kts 270°
2026-04-28 08:21 34.69108 135.00112 22077 ft 334 kts 269°
2026-04-28 08:21 34.68973 134.97275 22839 ft 338 kts 269°
2026-04-28 08:22 34.68832 134.94249 23619 ft 341 kts 269°
2026-04-28 08:22 34.68703 134.91356 24216 ft 345 kts 269°
2026-04-28 08:23 34.68577 134.88435 24813 ft 349 kts 270°
2026-04-28 08:23 34.68454 134.85471 25417 ft 352 kts 270°
2026-04-28 08:23 34.68332 134.82479 26026 ft 356 kts 270°
2026-04-28 08:23 34.68211 134.79463 26619 ft 359 kts 270°
2026-04-28 08:24 34.68090 134.76421 27202 ft 362 kts 270°
2026-04-28 08:24 34.67969 134.73348 27787 ft 365 kts 271°
2026-04-28 08:24 34.67847 134.70249 28344 ft 369 kts 271°
2026-04-28 08:24 34.67723 134.67120 28787 ft 374 kts 266°
2026-04-28 08:25 34.67468 134.63951 29429 ft 378 kts 263°
2026-04-28 08:25 34.67119 134.60773 30139 ft 381 kts 263°
2026-04-28 08:25 34.66792 134.57575 30738 ft 383 kts 265°
2026-04-28 08:26 34.66307 134.51043 31770 ft 392 kts 266°
2026-04-28 08:26 34.66136 134.47766 32275 ft 395 kts 267°
2026-04-28 08:26 34.65985 134.44378 32766 ft 398 kts 268°
2026-04-28 08:26 34.65847 134.41048 33243 ft 402 kts 268°
2026-04-28 08:27 34.65439 134.31325 34281 ft 413 kts 268°
2026-04-28 08:27 34.64810 134.17350 36349 ft 408 kts 267°
2026-04-28 08:27 34.64171 134.03614 38181 ft 406 kts 266°
2026-04-28 08:27 34.63527 133.90069 39691 ft 403 kts 266°
2026-04-28 08:28 34.62866 133.76505 39917 ft 400 kts 267°
2026-04-28 08:28 34.59442 133.52597 39928 ft 403 kts 261°
2026-04-28 08:29 34.58395 133.45918 39927 ft 403 kts 261°
2026-04-28 08:29 34.57350 133.39252 39931 ft 402 kts 261°
2026-04-28 08:29 34.56836 133.35968 40295 ft 405 kts 259°
2026-04-28 08:30 34.56300 133.32565 39823 ft 412 kts 261°
2026-04-28 08:30 34.55229 133.25772 39935 ft 406 kts 261°
2026-04-28 08:31 34.54165 133.19061 39939 ft 404 kts 261°
2026-04-28 08:31 34.53105 133.12379 39929 ft 403 kts 261°
2026-04-28 08:32 34.52043 133.05711 39933 ft 402 kts 261°
2026-04-28 08:32 34.50984 132.99096 39937 ft 402 kts 261°
2026-04-28 08:33 34.49906 132.92408 39990 ft 400 kts 261°
2026-04-28 08:33 34.48804 132.85840 39998 ft 400 kts 260°
2026-04-28 08:34 34.47645 132.79229 39919 ft 401 kts 259°
2026-04-28 08:34 34.46428 132.72634 39920 ft 401 kts 259°
2026-04-28 08:35 34.45261 132.66541 39902 ft 400 kts 259°
2026-04-28 08:35 34.44026 132.59942 39832 ft 402 kts 259°
2026-04-28 08:36 34.42844 132.53367 39854 ft 401 kts 260°
2026-04-28 08:36 34.41894 132.46740 39906 ft 399 kts 263°